Torna al catalogo

STARLINK-30252

AttivoComunicazioniVLEO
NORAD 57607·PAYLOAD·🇺🇸 United States

Lanciato Aug 11, 2023 da Cape Canaveral Space Force Station

Loading…

Prossimi Passaggi (prossime 24 ore)

TLE

AggiornatoSource: CelesTrak SupGP

Epoca: Sep 14, 2026, 20:50 UTC

1 57607C 23119F   26257.86854167  .00029092  00000+0  10539-2 0  2576
2 57607  42.9997  78.2609 0001420 275.2911 123.1729 15.27558563    16

Traccia STARLINK-30252 in tempo reale con AllMySat

Download on the App Store